Location: Kosice
(0.0000°N, 21.2500°E)
Time: 05:38:54
(UTC+01:00)

Ariane 44P Rocket - Pass Details

Date: 24 January 2021
Orbit: 275 x 24562 km, 4.1° (Epoch: 04 March)

Event Time Altitude Azimuth Distance (km) Brightness Sun altitude
Rises 19:03:02 0° 276° (W) 2,165 6.5 -17.9°
Reaches altitude 10° 19:04:17 10° 281° (W) 1,559 5.5 -18.2°
Maximum altitude 19:07:13 63° 4° (N) 851 3.1 -18.9°
Enters shadow 19:10:45 29° 75° (ENE) 2,200 4.7 -19.7°
